sat.trackr.live / text

‹ back to catalog

STARLINK-33748

NORAD 63383 · 2025-063W

PAYLOAD ACTIVE UNKNOWN

§ Identity

Operator
Country
US
Launch date
2025-03-26
Launch site
AFWTR
Launch vehicle
Mass (kg)
RCS (m²)

Purposes: comms

External: N2YO · Heavens-Above · Gunter

§ Orbital elements

Epoch: 2026-05-25T04:51:14.440608Z

Period
94.10 min
Inclination
53.1574°
Eccentricity
0.0001169
Mean motion
15.30210485 rev/d
Perigee alt
474.4 km
Apogee alt
476.0 km
Semi-major
6,853.3 km
B*
1.1752e-3
RAAN
67.7330°
Arg perigee
98.1353°
Mean anomaly
261.9780°
Rev number
6,632

§ Raw data

STARLINK-337481 63383U 25063W   26145.20225047  .00034621  00000+0  11752-2 0  99922 63383  53.1574  67.7330 0001169  98.1353 261.9780 15.30210485 66321

JSON: /api/v1/satellites/63383 · /tle

For live sub-satellite position, see the globe view (requires WebGL).

§ Visibility from observer

Set your observer location to see the next 7 days of passes ≥ 10°. The values pass through the URL so the page stays shareable.

No JS? Fill the form by hand. The geolocation button needs JavaScript.